Location: Unspecified
(48.7670°N, 0.0000°E)
Time: 06:50:03
(UTC+00:00)

ISS - Visible Passes

Search period start: 25 May 2019 00:00
Search period end: 04 June 2019 00:00
Orbit: 408 x 418 km, 51.6° (Epoch: 25 May)

Date Brightness Start Highest point End Pass type
(mag) Time Alt. Az. Time Alt. Az. Time Alt. Az.
25 May -2.9 21:24:53 10° WNW 21:28:10 49° N 21:31:27 10° E visible
25 May -3.9 23:01:39 10° WNW 23:05:01 83° SSW 23:05:08 80° SSE visible
26 May -2.8 20:35:19 10° W 20:38:35 49° N 20:41:51 10° ENE visible
26 May -3.6 22:12:08 10° WNW 22:15:30 74° NNE 22:17:09 27° E visible
26 May -1.5 23:49:02 10° W 23:49:57 16° W 23:49:57 16° W visible
27 May -3.3 21:22:37 10° WNW 21:25:56 60° NNE 21:29:12 10° E visible
27 May -3.0 22:59:22 10° WNW 23:02:00 39° WSW 23:02:00 39° WSW visible
28 May -3.0 20:33:03 10° WNW 20:36:20 52° N 20:39:38 10° E visible
28 May -3.8 22:09:47 10° WNW 22:13:07 65° SSW 22:14:05 41° SE visible
29 May -3.8 21:20:14 10° WNW 21:23:35 89° N 21:26:10 16° ESE visible
29 May -1.8 22:57:19 10° W 22:58:59 19° WSW 22:58:59 19° WSW visible
30 May -3.5 20:30:41 10° WNW 20:34:01 69° NNE 20:37:21 10° E visible
30 May -2.9 22:07:30 10° W 22:10:33 32° SW 22:11:05 30° SSW visible
31 May -3.4 21:17:49 10° WNW 21:21:05 49° SSW 21:23:14 19° SE visible
01 Jun -1.7 22:05:40 10° W 22:07:47 16° SW 22:08:13 15° SSW visible
02 Jun -2.2 21:15:37 10° W 21:18:23 24° SW 21:20:25 14° S visible
